Hourly Data Report for September 12, 2017

All times are specified in Local Standard Time (LST). Add 1 hour to adjust for Daylight Saving Time where and when it is observed.

RANKIN INLET A
NUNAVUT

62°48'38.000" N
92°06'53.000" W
32.30 m
2303405
71083
YRT

Download Data

Hourly Data (September 2017)
Hourly Data Report for September 12, 2017
Temp Definition
°C
Dew Point Temp Definition
°C
Rel Hum Definition
%
Wind Dir Definition
10's deg

Wind Spd Definition
km/h
Visibility Definition
km
Stn Press Definition
kPa
Hmdx Definition


Wind Chill Definition


Weather Definition


TIME
00:00 Legend Double Dagger 2.4 -0.1 83 2 47 12.9 99.40     Cloudy
01:00 Legend Double Dagger 2.9 -1.8 71 2 46 16.1 99.47     LegendNANA
02:00 Legend Double Dagger 3.1 -2.1 69 2 50 16.1 99.49     LegendNANA
03:00 Legend Double Dagger 2.7 -1.4 75 1 47 16.1 99.58     Mostly Cloudy
04:00 Legend Double Dagger 2.6 -0.6 79 1 44 16.1 99.65     LegendNANA
05:00 Legend Double Dagger 2.2 -0.6 81 1 41 24.1 99.71     LegendNANA
06:00 Legend Double Dagger 2.1 -0.4 84 1 37 24.1 99.77     Mostly Cloudy
07:00 Legend Double Dagger 2.4 -0.2 83 1 37 24.1 99.84     LegendNANA
08:00 Legend Double Dagger 2.8 0.1 83 2 45 24.1 99.88     LegendNANA
09:00 Legend Double Dagger 3.2 0.6 83 1 44 24.1 99.93     Mostly Cloudy
10:00 Legend Double Dagger 4.0 1.0 81 1 41 24.1 100.00     LegendNANA
11:00 Legend Double Dagger 3.4 0.3 80 36 47 24.1 100.07     LegendNANA
12:00 Legend Double Dagger 3.6 0.1 78 1 40 24.1 100.15     Mostly Cloudy
13:00 Legend Double Dagger 4.8 0.3 72 36 33 24.1 100.23     LegendNANA
14:00 Legend Double Dagger 5.8 0.3 67 3 32 24.1 100.28     LegendNANA
15:00 Legend Double Dagger 5.8 -0.4 64 2 35 24.1 100.32     Mostly Cloudy
16:00 Legend Double Dagger 6.2 -0.5 62 3 27 24.1 100.38     LegendNANA
17:00 Legend Double Dagger 5.7 -0.6 64 2 24 24.1 100.43     LegendNANA
18:00 Legend Double Dagger 4.5 -0.4 71 4 17 24.1 100.49     Mainly Clear
19:00 Legend Double Dagger 3.4 -0.4 76 4 18 24.1 100.56     LegendNANA
20:00 Legend Double Dagger 2.9 -0.7 77 2 19 24.1 100.61     LegendNANA
21:00 Legend Double Dagger 1.2 -1.2 84 34 12 24.1 100.66     Mainly Clear
22:00 Legend Double Dagger 1.7 -1.3 80 3 14 24.1 100.70     LegendNANA
23:00 Legend Double Dagger 1.2 -1.0 85 1 14 24.1 100.74     LegendNANA

Notes on Data Quality.

Legend

  • E = Estimated
  • M = Missing
  • NA = Not Available
  • ‡ = Partner data that is not subject to review by the National Climate Archives
Date modified: